星链-35288(STARLINK-35288)

导读 | 豆包AI

STARLINK-35288是美国SpaceX公司星链(Starlink)卫星互联网星座的一员,于2025年9月25日发射入轨。星链项目旨在构建全球覆盖的低成本、高性能太空互联网系统,可支持手机直连服务,提供文本、语音及数据通信能力,同时服务物联网应用,填补偏远地区网络覆盖空白,该卫星作为星座扩容的一部分,进一步增强了星座的全球网络服务能力。

基本信息
目录编号:
65749
目录名称:
STARLINK-35288
国际标识:
2025-216R
轨道中心:
EARTH
卫星名称:
星链-35288
卫星全名:
星链-35288(STARLINK-35288)
卫星状态:
在轨 (已飞行170 天)
发射日期:
2025-09-25 UTC
国别 :
美国 (US)
星等 :
--
轨道信息
数据来源 国际轨道数据
星历时间: 2026-03-14T06:24:39+0800
11小时前
查看轨道信息
半长轴: 6853.285km
偏心率: 0.0002672
轨道倾角: 53.157°
近地点辐角 99.284°
升交点赤经 313.159°
平近点角 260.846°
近地点: 473.316km
远地点: 476.98km
周期: 94.104分钟
每日圈数: 15.302226
详细信息
固有亮度:
5
最大亮度:
2.5
卫星平台:
Starlink V1.0
覆盖范围:
全球
运营商:
太空探索技术公司
运营商所在国:
美国
制造商(研发单位):
太空探索技术公司
制造商所在国:
美国
使用方式:
暂无
卫星简介
Starlink 计划是 SpaceX 推出的全球卫星互联网项目,通过发射低轨道卫星,为全球尤其是偏远地区提供高速、低延迟的互联网服务。自 2019 年起,Starlink 已部署数千颗卫星,旨在缩小全球数字鸿沟,推动互联网普及。该项目还为军事、航空等行业提供通信支持,带来广泛经济效益。
2D轨道图
3D轨道图
轨道高度分析图
轨道倾角分析图
轨道综合分析图
查看轨道综合分析图